WD5EAA Weather Reports


Display with metric or nautical units.
time (UTC)temp
F
wind
direction
speed
MPH
gust
MPH
rain 1hr
in
rain 24hr
in
rain mn
in
humidity
%
barometer
mb
20260508075016 43 254 4.0 7.0 0.00 0.00 0.00 86 1016.3
20260508074532 43 261 5.0 7.0 0.00 0.00 0.00 85 1016.5
20260508074016 43 246 3.0 6.0 0.00 0.00 0.00 85 1016.3
20260508073519 44 228 3.0 9.0 0.00 0.00 0.00 84 1016.1
20260508073033 44 262 3.0 9.0 0.00 0.00 0.00 84 1016.3
20260508072515 44 196 6.0 9.0 0.00 0.00 0.00 83 1016.1
20260508072016 45 246 3.0 5.0 0.00 0.00 0.00 84 1016.2
20260508071532 45 246 3.0 7.0 0.00 0.00 0.00 83 1016.1
20260508071015 45 199 4.0 8.0 0.00 0.00 0.00 83 1016.2
20260508070516 46 139 4.0 8.0 0.00 0.00 0.00 83 1016.0
20260508070032 46 132 5.0 8.0 0.00 0.00 0.00 82 1015.9
20260508065515 46 112 4.0 7.0 0.00 0.00 0.00 81 1015.9
20260508065016 47 107 4.0 10.0 0.00 0.00 0.00 81 1016.1
20260508064551 47 22 5.0 15.0 0.00 0.00 0.00 80 1016.7
20260508064016 47 16 7.0 17.0 0.00 0.00 0.00 80 1017.1
20260508063516 47 344 10.0 17.0 0.00 0.00 0.00 79 1017.5
20260508063032 47 333 10.0 17.0 0.00 0.00 0.00 78 1017.9
20260508062516 47 351 9.0 14.0 0.00 0.00 0.00 78 1017.5
20260508062013 47 9 5.0 9.0 0.00 0.00 0.00 77 1016.6
20260508061532 47 66 7.0 9.0 0.00 0.00 0.00 77 1016.2
20260508061016 47 82 7.0 10.0 0.00 0.00 0.00 77 1015.9
20260508060518 47 88 8.0 10.0 0.00 0.00 0.00 77 1015.9
20260508060036 47 90 8.0 10.0 0.00 0.00 0.00 76 1015.9
20260508055515 48 97 8.0 11.0 0.00 0.00 0.00 76 1015.8
20260508055018 48 96 8.0 12.0 0.00 0.00 0.00 75 1015.7
20260508054548 48 86 9.0 12.0 0.00 0.00 0.00 76 1015.8
20260508054016 48 86 9.0 12.0 0.00 0.00 0.00 76 1015.8
20260508053515 48 83 8.0 14.0 0.00 0.00 0.00 76 1015.8
20260508053032 48 91 9.0 14.0 0.00 0.00 0.00 75 1015.8
20260508052515 49 87 11.0 14.0 0.00 0.00 0.00 73 1015.8
20260508052019 49 78 9.0 11.0 0.00 0.00 0.00 72 1016.1
20260508051532 49 62 7.0 11.0 0.00 0.00 0.00 73 1016.7
20260508051017 49 53 9.0 11.0 0.00 0.00 0.00 73 1016.9
20260508050516 49 36 9.0 11.0 0.00 0.00 0.00 73 1016.7
20260508050036 49 46 10.0 11.0 0.00 0.00 0.00 73 1016.5
20260508045515 49 49 9.0 13.0 0.00 0.00 0.00 72 1016.3
20260508045016 49 62 9.0 13.0 0.00 0.00 0.00 71 1016.0
20260508044532 49 65 11.0 13.0 0.00 0.00 0.00 71 1015.8
20260508044016 49 69 11.0 13.0 0.00 0.00 0.00 70 1015.7
20260508043515 49 67 9.0 14.0 0.00 0.00 0.00 70 1015.8
20260508043042 50 74 9.0 16.0 0.00 0.00 0.00 69 1015.7
20260508042515 50 67 11.0 16.0 0.00 0.00 0.00 68 1015.7
20260508042012 51 64 12.0 20.0 0.00 0.00 0.00 67 1015.6
20260508041534 51 64 13.0 21.0 0.00 0.00 0.00 66 1015.8
20260508041016 51 67 16.0 21.0 0.00 0.00 0.00 64 1015.7
20260508040516 52 63 17.0 21.0 0.00 0.00 0.00 63 1015.8
20260508040041 52 59 15.0 23.0 0.00 0.00 0.00 61 1015.9
20260508035521 53 49 12.0 23.0 0.00 0.00 0.00 60 1016.0
20260508035016 53 33 11.0 23.0 0.00 0.00 0.00 59 1016.1
20260508034534 55 53 17.0 23.0 0.00 0.00 0.00 55 1016.3
20260508034015 56 38 6.0 13.0 0.00 0.00 0.00 47 1016.2
20260508033515 57 136 5.0 23.0 0.00 0.00 0.00 46 1016.0
20260508033034 57 200 6.0 28.0 0.00 0.00 0.00 44 1016.1
20260508032517 55 225 15.0 28.0 0.00 0.00 0.00 51 1015.9
20260508032017 54 213 6.0 8.0 0.00 0.00 0.00 56 1016.3
20260508031530 54 205 4.0 6.0 0.00 0.00 0.00 54 1016.1
20260508031015 54 217 4.0 5.0 0.00 0.00 0.00 54 1015.9
20260508030520 54 217 3.0 5.0 0.00 0.00 0.00 54 1015.7
20260508030032 54 230 3.0 5.0 0.00 0.00 0.00 53 1015.6
20260508025517 54 225 3.0 8.0 0.00 0.00 0.00 54 1015.5
20260508025016 54 245 3.0 8.0 0.00 0.00 0.00 54 1015.5
20260508024532 54 256 3.0 9.0 0.00 0.00 0.00 54 1015.5
20260508024016 55 290 5.0 9.0 0.00 0.00 0.00 54 1015.7
20260508023516 55 269 4.0 9.0 0.00 0.00 0.00 53 1015.7
20260508023032 56 308 3.0 15.0 0.00 0.00 0.00 52 1015.6
20260508022515 56 352 10.0 20.0 0.00 0.00 0.00 51 1015.5
20260508022016 56 37 11.0 23.0 0.00 0.00 0.00 51 1015.3
20260508021530 55 22 16.0 23.0 0.00 0.00 0.00 52 1015.0
20260508021022 55 13 15.0 21.0 0.00 0.00 0.00 54 1014.7
20260508020515 56 26 15.0 21.0 0.00 0.00 0.00 53 1014.8
20260508020030 56 30 16.0 23.0 0.00 0.00 0.00 51 1014.6
20260508015515 57 30 16.0 28.0 0.00 0.00 0.00 48 1014.5
20260508015019 57 36 18.0 28.0 0.00 0.00 0.00 46 1014.3
20260508014532 58 32 19.0 28.0 0.00 0.00 0.00 42 1014.1
20260508014016 59 32 10.0 13.0 0.00 0.00 0.00 39 1014.1
20260508013515 59 24 10.0 12.0 0.00 0.00 0.00 37 1014.0
20260508013032 60 20 8.0 12.0 0.00 0.00 0.00 36 1014.0
20260508012519 59 49 7.0 12.0 0.00 0.00 0.00 34 1013.9
20260508012016 60 12 2.0 5.0 0.00 0.00 0.00 37 1013.8
20260508011541 60 338 0.0 3.0 0.00 0.00 0.00 37 1013.7
20260508011015 60 313 1.0 4.0 0.00 0.00 0.00 37 1013.8
20260508010515 60 309 2.0 4.0 0.00 0.00 0.00 39 1013.8
20260508010038 60 308 3.0 5.0 0.00 0.00 0.00 39 1013.8
20260508005515 61 306 2.0 6.0 0.00 0.00 0.00 38 1013.8
20260508005017 61 302 3.0 9.0 0.00 0.00 0.00 34 1013.8
20260508004538 61 338 4.0 9.0 0.00 0.00 0.00 34 1013.6
20260508004014 62 320 4.0 14.0 0.00 0.00 0.00 33 1013.7
20260508003516 63 301 5.0 14.0 0.00 0.00 0.00 32 1013.6
20260508003030 64 322 7.0 14.0 0.00 0.00 0.00 31 1013.5
20260508002516 65 297 9.0 14.0 0.00 0.00 0.00 29 1013.5
20260508002016 65 288 9.0 16.0 0.00 0.00 0.00 28 1013.5
20260508001534 65 298 10.0 16.0 0.00 0.00 0.00 27 1013.6
20260508001017 65 287 11.0 16.0 0.00 0.00 0.00 27 1013.6
20260508000517 66 275 11.0 16.0 0.00 0.00 0.00 30 1013.6
20260508000030 66 298 9.0 17.0 0.00 0.00 0.00 27 1013.6
20260507235516 67 311 10.0 19.0 0.00 0.00 0.00 27 1013.5
20260507235016 67 267 13.0 19.0 0.00 0.00 0.00 27 1013.5
20260507234541 67 292 13.0 18.0 0.00 0.00 0.00 28 1013.6
20260507234015 67 281 11.0 17.0 0.00 0.00 0.00 27 1013.6
20260507233516 67 318 10.0 20.0 0.00 0.00 0.00 28 1013.6
20260507233034 67 271 8.0 20.0 0.00 0.00 0.00 27 1013.6
20260507232519 67 273 14.0 20.0 0.00 0.00 0.00 27 1013.6
20260507232016 67 278 10.0 20.0 0.00 0.00 0.00 28 1013.7
20260507231537 67 306 14.0 26.0 0.00 0.00 0.00 27 1013.8
20260507231016 66 281 16.0 27.0 0.00 0.00 0.00 27 1013.8
20260507230516 65 292 16.0 27.0 0.00 0.00 0.00 28 1013.8
20260507230032 66 282 15.0 21.0 0.00 0.00 0.00 27 1013.7
20260507225516 65 313 14.0 21.0 0.00 0.00 0.00 28 1013.7
20260507225016 65 307 14.0 29.0 0.00 0.00 0.00 26 1013.8
20260507224530 66 280 18.0 29.0 0.00 0.00 0.00 28 1013.9
20260507224018 66 312 20.0 28.0 0.00 0.00 0.00 27 1013.7
20260507223520 66 286 17.0 25.0 0.00 0.00 0.00 26 1013.8
20260507223030 66 283 16.0 26.0 0.00 0.00 0.00 29 1013.7
20260507222523 64 287 20.0 26.0 0.00 0.00 0.00 27 1013.8
20260507222016 66 302 15.0 27.0 0.00 0.00 0.00 27 1013.8
20260507221532 66 286 19.0 28.0 0.00 0.00 0.00 28 1013.8
20260507221016 66 279 18.0 29.0 0.00 0.00 0.00 28 1013.9
20260507220520 67 281 16.0 32.0 0.00 0.00 0.00 29 1014.0
20260507220031 67 279 20.0 32.0 0.00 0.00 0.00 27 1013.9
20260507215518 67 304 22.0 32.0 0.00 0.00 0.00 27 1014.0
20260507215016 67 273 19.0 32.0 0.00 0.00 0.00 28 1014.1
20260507214531 67 275 23.0 34.0 0.00 0.00 0.00 28 1014.1
20260507214016 67 303 23.0 34.0 0.00 0.00 0.00 27 1014.2
20260507213516 67 298 20.0 31.0 0.00 0.00 0.00 28 1014.2
20260507213039 66 313 23.0 30.0 0.00 0.00 0.00 27 1014.1
20260507212516 67 305 17.0 28.0 0.00 0.00 0.00 27 1014.2
20260507212022 66 304 21.0 31.0 0.00 0.00 0.00 28 1014.4
20260507211542 66 313 22.0 31.0 0.00 0.00 0.00 28 1014.4
20260507211014 66 284 20.0 27.0 0.00 0.00 0.00 27 1014.5
20260507210519 66 304 19.0 31.0 0.00 0.00 0.00 29 1014.6
20260507210033 65 312 20.0 37.0 0.00 0.00 0.00 27 1014.6
20260507205513 67 313 25.0 37.0 0.00 0.00 0.00 28 1014.8
20260507205016 67 276 22.0 33.0 0.00 0.00 0.00 27 1014.7
20260507204531 66 302 20.0 34.0 0.00 0.00 0.00 29 1014.7
20260507204016 67 300 22.0 36.0 0.00 0.00 0.00 28 1014.9
20260507203516 67 273 22.0 36.0 0.00 0.00 0.00 29 1014.9
20260507203032 67 281 23.0 36.0 0.00 0.00 0.00 28 1014.8
20260507202515 67 278 20.0 35.0 0.00 0.00 0.00 31 1015.0
20260507202020 66 291 20.0 35.0 0.00 0.00 0.00 29 1015.1
20260507201533 66 250 23.0 34.0 0.00 0.00 0.00 31 1014.9
20260507201016 66 253 18.0 30.0 0.00 0.00 0.00 32 1014.9
20260507200516 66 273 20.0 30.0 0.00 0.00 0.00 30 1015.1
20260507200031 66 285 16.0 28.0 0.00 0.00 0.00 32 1015.1
20260507195515 66 277 13.0 28.0 0.00 0.02 0.00 33 1015.3
20260507195017 66 298 18.0 31.0 0.00 0.02 0.00 31 1015.4
20260507194530 65 292 18.0 31.0 0.00 0.02 0.00 31 1015.5
20260507194016 65 271 22.0 31.0 0.00 0.02 0.00 33 1015.4
20260507193516 65 265 18.0 25.0 0.00 0.02 0.00 32 1015.5
20260507193031 65 264 14.0 25.0 0.00 0.02 0.00 32 1015.6
20260507192515 65 244 17.0 25.0 0.00 0.02 0.00 32 1015.7
20260507192016 65 263 19.0 25.0 0.00 0.02 0.00 32 1015.7
20260507191531 65 281 18.0 25.0 0.00 0.02 0.00 33 1015.9
20260507191020 65 314 16.0 24.0 0.00 0.02 0.00 33 1016.0
20260507190520 65 284 15.0 28.0 0.00 0.02 0.00 32 1016.0
20260507190030 64 262 19.0 28.0 0.00 0.02 0.00 33 1016.0
20260507185516 65 284 20.0 25.0 0.00 0.08 0.00 34 1016.1
20260507185016 64 261 16.0 24.0 0.00 0.08 0.00 35 1016.2
20260507184532 64 270 13.0 23.0 0.00 0.08 0.00 33 1016.2
20260507184020 64 255 14.0 27.0 0.00 0.08 0.00 33 1016.1
20260507183516 63 284 15.0 27.0 0.00 0.08 0.00 35 1016.3
20260507183031 64 251 16.0 27.0 0.00 0.08 0.00 35 1016.3
20260507182513 64 269 13.0 25.0 0.00 0.08 0.00 35 1016.4
20260507182016 64 241 14.0 25.0 0.00 0.08 0.00 35 1016.4
20260507181534 64 290 17.0 25.0 0.00 0.08 0.00 35 1016.4
20260507181019 63 281 15.0 22.0 0.00 0.08 0.00 37 1016.4
20260507180516 63 271 16.0 22.0 0.00 0.08 0.00 34 1016.4
20260507180031 63 265 16.0 21.0 0.00 0.08 0.00 35 1016.4
20260507175522 64 272 15.0 20.0 0.00 0.17 0.00 38 1016.4
20260507175016 63 269 14.0 22.0 0.00 0.17 0.00 39 1016.4
20260507174544 62 269 13.0 24.0 0.00 0.17 0.00 38 1016.6
20260507174019 61 250 15.0 24.0 0.00 0.17 0.00 40 1016.6
20260507173521 61 258 17.0 24.0 0.00 0.17 0.00 38 1016.7
20260507173030 60 256 15.0 24.0 0.00 0.17 0.00 44 1016.7
20260507172515 60 248 17.0 24.0 0.00 0.17 0.00 42 1016.7
20260507172021 60 236 18.0 24.0 0.00 0.17 0.00 41 1016.8
20260507171540 60 269 20.0 25.0 0.00 0.17 0.00 41 1016.8
20260507171015 60 263 19.0 25.0 0.00 0.17 0.00 40 1016.9
20260507170515 61 242 17.0 24.0 0.00 0.17 0.00 39 1016.9
20260507170032 60 265 17.0 22.0 0.00 0.17 0.00 39 1017.0
20260507165521 59 235 18.0 22.0 0.00 0.22 0.00 41 1017.1
20260507165017 59 238 17.0 22.0 0.00 0.22 0.00 44 1017.1
20260507164530 59 246 17.0 22.0 0.00 0.22 0.00 46 1017.2
20260507164016 58 240 16.0 22.0 0.00 0.22 0.00 45 1017.2
20260507163516 58 252 17.0 22.0 0.00 0.22 0.00 42 1017.3
20260507163030 57 257 16.0 22.0 0.00 0.22 0.00 46 1017.2
20260507162516 57 236 17.0 22.0 0.00 0.22 0.00 44 1017.3
20260507162016 57 264 17.0 21.0 0.00 0.22 0.00 47 1017.3
20260507161530 56 265 17.0 21.0 0.00 0.22 0.00 47 1017.5
20260507161015 55 248 16.0 20.0 0.00 0.22 0.00 46 1017.5
20260507160516 55 253 15.0 20.0 0.00 0.22 0.00 47 1017.5
20260507160037 54 257 14.0 20.0 0.00 0.22 0.00 48 1017.6
20260507155516 54 249 14.0 19.0 0.00 0.28 0.00 48 1017.6
20260507155014 54 230 13.0 18.0 0.00 0.28 0.00 49 1017.7
20260507154530 53 224 12.0 18.0 0.00 0.28 0.00 51 1017.8
20260507154015 52 213 13.0 18.0 0.00 0.28 0.00 50 1017.8
20260507153516 51 229 12.0 16.0 0.00 0.28 0.00 52 1017.7
20260507153032 51 200 13.0 18.0 0.00 0.28 0.00 50 1017.7
20260507152517 50 199 13.0 18.0 0.00 0.28 0.00 52 1017.6
20260507152018 50 212 12.0 17.0 0.00 0.28 0.00 52 1017.7
20260507151531 50 188 12.0 15.0 0.00 0.28 0.00 52 1017.7
20260507151016 50 209 11.0 18.0 0.00 0.28 0.00 54 1017.7
20260507150516 49 215 10.0 19.0 0.00 0.28 0.00 54 1017.7
20260507150036 49 239 13.0 19.0 0.00 0.28 0.00 53 1017.7
20260507145516 49 232 13.0 18.0 0.00 0.28 0.00 52 1017.6
20260507145020 48 237 13.0 20.0 0.00 0.28 0.00 52 1017.7
20260507144530 48 240 16.0 21.0 0.00 0.28 0.00 49 1017.6
20260507144016 47 220 14.0 21.0 0.00 0.28 0.00 52 1017.6
20260507143515 47 233 15.0 18.0 0.00 0.28 0.00 52 1017.7
20260507143032 47 228 14.0 20.0 0.00 0.28 0.00 53 1017.6
20260507142517 46 232 14.0 20.0 0.00 0.28 0.00 53 1017.5
20260507142019 45 228 14.0 19.0 0.00 0.28 0.00 53 1017.6
20260507141533 45 207 16.0 19.0 0.00 0.28 0.00 54 1017.4
20260507141018 44 237 15.0 19.0 0.00 0.28 0.00 54 1017.5
20260507140516 44 241 12.0 15.0 0.00 0.28 0.00 56 1017.5
20260507140041 43 235 9.0 17.0 0.00 0.28 0.00 56 1017.6
20260507135516 43 234 12.0 22.0 0.00 0.28 0.00 54 1017.6
20260507135018 43 235 15.0 24.0 0.00 0.28 0.00 54 1017.5
20260507134532 42 243 19.0 25.0 0.00 0.28 0.00 53 1017.4
20260507134016 42 237 19.0 28.0 0.00 0.28 0.00 53 1017.3
20260507133516 42 236 23.0 28.0 0.00 0.28 0.00 52 1017.2
20260507133034 42 246 20.0 25.0 0.00 0.28 0.00 53 1017.1
20260507132515 41 236 19.0 24.0 0.00 0.28 0.00 52 1017.2
20260507132015 41 242 18.0 22.0 0.00 0.28 0.00 54 1017.2
20260507131603 41 242 17.0 24.0 0.00 0.28 0.00 54 1017.3
20260507131016 40 247 18.0 24.0 0.00 0.28 0.00 55 1017.1
20260507130516 40 246 18.0 25.0 0.00 0.28 0.00 53 1017.1
20260507130029 40 244 19.0 25.0 0.00 0.28 0.00 53 1017.1
20260507125516 40 246 20.0 25.0 0.00 0.28 0.00 52 1017.1
20260507125015 40 246 19.0 24.0 0.00 0.28 0.00 52 1016.9
20260507124532 40 250 18.0 24.0 0.00 0.28 0.00 53 1016.8
20260507124017 39 235 18.0 22.0 0.00 0.28 0.00 55 1016.7
20260507123517 38 235 16.0 24.0 0.00 0.28 0.00 55 1016.6
20260507123041 38 240 16.0 24.0 0.00 0.28 0.00 55 1016.7
20260507122518 38 238 18.0 24.0 0.00 0.28 0.00 54 1016.6
20260507122016 38 237 18.0 25.0 0.00 0.28 0.00 56 1016.5
20260507121532 38 236 18.0 25.0 0.00 0.28 0.00 55 1016.5
20260507121016 38 243 20.0 25.0 0.00 0.28 0.00 55 1016.5
20260507120516 38 238 19.0 24.0 0.00 0.28 0.00 55 1016.5
20260507120035 38 234 18.0 24.0 0.00 0.28 0.00 55 1016.4
20260507115515 38 239 18.0 23.0 0.00 0.28 0.00 55 1016.3
20260507115015 38 234 17.0 25.0 0.00 0.28 0.00 55 1016.4
20260507114533 38 230 18.0 25.0 0.00 0.28 0.00 55 1016.4
20260507114020 38 236 17.0 22.0 0.00 0.28 0.00 54 1016.4
20260507113516 38 238 18.0 23.0 0.00 0.28 0.00 53 1016.4
20260507113059 38 237 18.0 23.0 0.00 0.28 0.00 54 1016.3
20260507112520 37 232 17.0 22.0 0.00 0.28 0.00 55 1016.3
20260507112016 37 236 17.0 22.0 0.00 0.28 0.00 56 1016.3
20260507111532 37 234 16.0 21.0 0.00 0.28 0.00 57 1016.4
20260507111016 37 233 14.0 20.0 0.00 0.28 0.00 57 1016.4
20260507110516 36 227 15.0 20.0 0.00 0.28 0.00 58 1016.4
20260507110036 36 235 15.0 18.0 0.00 0.28 0.00 58 1016.4
20260507105520 37 230 14.0 20.0 0.00 0.28 0.00 57 1016.4
20260507105016 37 240 16.0 22.0 0.00 0.28 0.00 56 1016.5
20260507104530 37 238 17.0 22.0 0.00 0.28 0.00 56 1016.5
20260507104014 38 238 17.0 23.0 0.00 0.28 0.00 55 1016.6
20260507103517 37 238 16.0 23.0 0.00 0.28 0.00 57 1016.6
20260507103033 37 234 17.0 23.0 0.00 0.28 0.00 57 1016.7
20260507102515 37 232 17.0 23.0 0.00 0.28 0.00 58 1016.6
20260507102017 37 233 17.0 24.0 0.00 0.28 0.00 58 1016.7
20260507101530 37 240 18.0 24.0 0.00 0.28 0.00 57 1016.7
20260507101015 36 236 17.0 24.0 0.00 0.28 0.00 59 1016.7
20260507100515 36 236 18.0 23.0 0.00 0.28 0.00 59 1016.8
20260507100042 36 234 18.0 23.0 0.00 0.28 0.00 60 1016.8
20260507095515 36 224 17.0 23.0 0.00 0.28 0.00 60 1016.7
20260507095017 36 243 17.0 22.0 0.00 0.28 0.00 61 1016.8
20260507094531 36 237 17.0 23.0 0.00 0.28 0.00 62 1016.8
20260507094017 36 234 17.0 23.0 0.00 0.28 0.00 61 1016.8
20260507093516 36 238 19.0 26.0 0.00 0.28 0.00 60 1016.9
20260507093034 37 241 19.0 26.0 0.00 0.28 0.00 60 1016.8
20260507092517 37 238 17.0 23.0 0.00 0.28 0.00 59 1016.8
20260507092017 36 241 17.0 25.0 0.00 0.28 0.00 61 1016.9
20260507091539 36 241 17.0 25.0 0.00 0.28 0.00 60 1016.8
20260507091016 37 239 19.0 23.0 0.00 0.28 0.00 60 1016.8
20260507090516 36 229 18.0 23.0 0.00 0.28 0.00 63 1016.9
20260507090032 36 229 18.0 24.0 0.00 0.28 0.00 62 1016.8
20260507085515 36 235 18.0 24.0 0.00 0.28 0.00 62 1016.9
20260507085016 36 234 18.0 24.0 0.00 0.28 0.00 62 1016.9
20260507084547 36 234 17.0 22.0 0.00 0.28 0.00 62 1016.9
20260507084016 36 238 17.0 22.0 0.00 0.28 0.00 63 1016.9
20260507083515 35 229 17.0 22.0 0.00 0.28 0.00 66 1017.0
20260507083031 35 235 16.0 22.0 0.00 0.28 0.00 67 1017.0
20260507082516 35 222 16.0 22.0 0.00 0.28 0.00 67 1017.0
20260507082016 35 240 16.0 22.0 0.00 0.28 0.00 68 1017.1
20260507081530 35 234 17.0 23.0 0.00 0.28 0.00 68 1017.2
20260507081017 35 248 17.0 24.0 0.00 0.28 0.00 69 1017.1
20260507080515 35 219 19.0 25.0 0.00 0.28 0.00 68 1017.1
20260507080035 36 240 20.0 25.0 0.00 0.28 0.00 68 1017.2
20260507075517 35 227 19.0 25.0 0.00 0.28 0.00 69 1017.3